Flag for Germany Weather past 2 weeks in Aschersleben, Saxony-Anhalt, Germany

Now
66 °F

Overcast.


Feels Like: 66 °F
Forecast: 55 / 76 °F
Wind: 1 mph from Southwest

Location: Magdeburg

Current Time: Aug 28, 2015 at 8:04:44 PM

Latest Report: Aug 28, 2015 at 7:00 PM


Visibility: 28 mi

Pressure: 30.10 "Hg

Humidity: 70%

Dew point: 56 °F

Location of AscherslebenLocation

Historic Weather in Aschersleben — Graph

°F

Aschersleben temperature yesterday

Maximum temperature yesterday: 76 °F (at 11:00 AM)
Minimum temperature yesterday: 62 °F (at 10:00 PM)
Average temperature yesterday: 68 °F

Past Weeks' High & Low Weather Summary

 TemperatureHumidityPressure
High94 °F (Aug 14, 6:00 PM)100% (Aug 16, 4:00 AM)30.30 "Hg (Aug 16, 4:00 AM)
Low51 °F (Aug 23, 7:00 AM)30% (Aug 22, 4:00 PM)29.65 "Hg (Aug 14, 7:00 PM)
Average67 °F76%29.95 "Hg
* Reported Aug 13 7:00 PM — Aug 28 7:00 PM, Aschersleben, Weather by CustomWeather, © 2015

Note: Actual official high and low records may vary slightly from our data, if they occured in-between our weather recording intervals... More about our weather records

Advertising

Aschersleben weather history for previous 24 hours

 ConditionsComfort  
Time TempWeatherWind HumidityBarometerVisibility
7:00 PM
Fri, Aug 28
66 °FOvercast.1 mph70%30.10 "Hg28 mi
6:00 PM67 °FOvercast.2 mph66%30.09 "HgN/A
4:00 PM69 °FPartly sunny.1 mph63%30.07 "Hg37 mi
3:00 PM67 °FPartly sunny.1 mph64%30.07 "Hg37 mi
2:00 PM67 °FPartly sunny.1 mph65%30.06 "Hg37 mi
1:00 PM63 °FPartly sunny.2 mph74%30.06 "Hg37 mi
12:00 PM63 °FPartly sunny.2 mph72%30.05 "Hg25 mi
10:00 AM61 °FOvercast.2 mph82%30.02 "Hg25 mi
9:00 AM59 °FPartly sunny.2 mph90%29.99 "Hg25 mi
8:00 AM57 °FOvercast.1 mph94%29.97 "Hg25 mi
7:00 AM57 °FLow clouds.1 mph96%29.95 "Hg19 mi
5:00 AM57 °FLight rain. Low clouds.2 mph97%29.93 "Hg5 mi
4:00 AM58 °FLight rain. Overcast.2 mph96%29.90 "Hg6 mi
3:00 AM61 °FRain. Low clouds.1 mph99%29.87 "Hg1 mi
2:00 AM61 °FLight freezing rain. Low clouds.1 mph98%29.85 "Hg4 mi
1:00 AM61 °FLight rain. Overcast.1 mph98%29.86 "Hg3 mi
10:00 PM
Thu, Aug 27
62 °FLight rain. Low clouds.2 mph96%29.85 "Hg6 mi
9:00 PM64 °FLight rain. Overcast.3 mph88%29.82 "Hg28 mi
8:00 PM67 °FDrizzle. Overcast.2 mph81%29.82 "Hg25 mi
Weather by CustomWeather, © 2015

See weather overviewHow to use our weather pages